Meath Environmental Platform

Observations for Trim Market St

Time AQI Temp °C Hum % Pres Pa CO μg/m³ H₂S μg/m³ NO μg/m³ NO₂ μg/m³ O₃ μg/m³ SO₂ μg/m³ PM1 μg/m³ PM2.5 μg/m³ PM10 μg/m³
Thursday 27 August 2026
02:13 2 16.3 84 2,147,483,647 0.3 0 2.21 7.28 51.94 0 12.11 14.06 20.59
02:09 3 16.3 84 2,147,483,647 0.3 0 2.2 7.33 56.5 0 12.83 14.53 20.61
02:08 3 16.3 84 2,147,483,647 0.29 0 2.16 6.83 51.76 0 14.25 16.4 24.99
02:07 3 16.3 84 2,147,483,647 0.28 0 2.16 6.1 50.21 0 13.54 15.01 21.17
02:06 3 16.2 84 2,147,483,647 0.29 0 2.17 8.28 52.35 0 14.96 18.27 27.71
02:05 3 16.2 84 2,147,483,647 0.29 0 2.18 6.65 50.18 0 14.25 18.75 28.28
02:04 3 16.3 84 2,147,483,647 0.28 0 2.16 6.27 49.71 0 13.54 15.48 22.82
02:03 3 16.2 84 2,147,483,647 0.3 0 2.18 6.17 53.76 0 14.96 17.35 25.55
02:02 3 16.2 84 2,147,483,647 0.29 0 2.19 7.68 52.02 0 15.68 18.28 27.19
02:01 3 16.2 84 2,147,483,647 0.29 0 2.19 7.34 47.72 0 14.96 16.89 27.21
02:00 3 16.2 84 2,147,483,647 0.3 0 2.18 7.03 54.41 0 15.68 17.36 26.66
01:59 3 16.2 83 2,147,483,647 0.29 0 2.18 7.53 52.05 0 15.68 15.96 24.49
01:58 3 16.2 83 2,147,483,647 0.28 0 2.21 6.39 47.18 0 12.83 15.03 23.95
01:57 3 16.2 83 2,147,483,647 0.29 0 2.21 7.08 49.18 0 15.68 18.3 27.78
01:56 3 16.2 83 2,147,483,647 0.3 0 2.2 6.25 51.87 0 14.96 18.31 28.35
01:53 3 16.2 83 2,147,483,647 0.29 0 2.21 6.55 50.64 0 14.25 15.97 23.42
01:52 3 16.2 83 2,147,483,647 0.29 0 2.2 6.61 48.76 0 14.25 16.45 25.08
01:51 3 16.2 83 2,147,483,647 0.31 0 2.18 7.5 52.77 0 14.96 17.38 27.82
01:50 3 16.2 83 2,147,483,647 0.39 0 2.18 9.01 46.77 0 15.68 18.79 28.37
01:48 3 16.2 83 2,147,483,647 0.3 0 2.18 7.07 44.92 0 15.68 16.46 27.29